IRS-P6 (RESOURCESAT-1)

Last updated on Fri Jul 11 2025 00:02:27 GMT+0000 (Coordinated Universal Time)

1 28051U 03046A 25191.62480825 .00000077 00000+0 40140-4 0 9998 2 28051 98.2394 239.0001 0062953 286.9978 191.2486 14.35988609131506
UTC large
Height (km)
Speed (km/s)
/
Latitude / Longitude
Inclination (degrees)
Orbital Period (minutes)
Azimuth
Elevation
Range (km)
Doppler Factor

Next 0 passes for location: London (51.5072 / 0.1276)

Sorry there are no passes over London.